Location: Columbus
(35.2256°N, 82.1549°W)
Time: 19:24:39
(UTC-05:00)

Envisat - Pass Details

Date: 08 December 2021
Orbit: 764 x 766 km, 98.2° (Epoch: 21 January)

Event Time Altitude Azimuth Distance (km) Brightness Sun altitude
Rises 17:37:22 0° 198° (SSW) 3,215 6.9 -4.7°
Reaches altitude 10° 17:40:06 10° 213° (SSW) 2,294 6.5 -5.2°
Maximum altitude 17:44:05 23° 265° (W) 1,575 5.7 -5.9°
Drops below altitude 10° 17:48:06 10° 317° (NW) 2,306 5.8 -6.7°
Sets 17:50:52 0° 332° (NNW) 3,236 6.3 -7.2°
